Theta_e
313 314 315 317 318 319 321 322 320 321 322 322 323 323 323 323 322 321 320 318 318 318 321 326 330 331 331 328 322 321 329 351 351 351 349 350 349 351 350 352 350 347 345 343
315 315 316 318 319 319 320 321 321 322 322 323 323 323 324 324 323 321 320 320 319 318 322 327 329 330 330 331 324 327 323 322 330 345 346 345 329 346 347 350 349 344 335 337
316 316 316 318 319 320 320 321 321 321 323 323 323 323 323 324 322 321 320 320 320 320 323 325 329 331 331 335 334 327 324 333 322 333 348 325 326 325 336 345 343 340 336 336
316 317 317 319 320 320 321 320 320 321 322 323 325 325 325 325 323 322 322 323 323 323 323 324 326 330 330 328 328 326 326 324 334 330 345 327 341 338 333 332 327 330 322 317
317 318 319 319 319 320 320 320 320 320 322 322 323 325 324 325 324 323 323 323 324 323 323 324 327 329 330 332 331 328 324 322 323 323 346 341 336 333 330 326 327 323 319 316
319 319 320 320 320 320 320 320 321 321 321 323 323 325 324 325 325 324 324 323 323 323 323 324 326 328 330 336 338 342 341 331 333 333 334 332 329 328 327 327 328 327 326 326
319 320 320 320 320 320 320 321 323 322 322 322 323 324 324 326 324 325 325 323 323 325 326 327 329 329 332 337 336 334 332 333 331 330 329 326 324 323 323 322 324 323 322 323
319 320 320 319 320 320 320 321 323 322 322 321 322 325 324 325 325 324 325 325 325 326 328 329 330 331 332 332 332 329 328 326 321 318 316 316 316 321 317 319 319 318 320 321
321 321 319 320 319 321 321 322 322 323 323 324 325 324 327 326 325 324 326 326 328 328 329 329 329 328 329 328 327 327 325 324 323 318 317 317 317 316 317 316 316 315 316 315
320 322 320 319 319 320 321 322 324 322 325 328 327 327 326 326 325 324 325 326 328 329 329 329 328 327 327 325 324 324 323 322 320 319 318 318 316 315 315 314 314 314 313 312
320 322 321 320 320 320 321 322 323 323 323 326 329 326 326 328 325 325 325 326 327 327 327 326 326 325 324 323 322 321 320 319 319 318 317 316 315 314 314 313 312 311 310 310
320 322 324 321 320 320 322 322 324 326 327 327 325 326 325 325 326 326 325 327 326 325 325 324 323 322 321 320 320 320 318 317 317 316 316 316 314 313 314 315 313 313 314 315
323 322 330 327 325 323 323 324 322 324 328 327 330 327 325 325 325 325 325 325 325 324 323 322 321 320 320 319 318 317 316 316 315 315 314 314 314 314 313 314 314 315 316 316
325 322 324 329 327 325 323 326 326 326 327 328 325 324 325 324 324 324 324 324 324 323 322 321 320 319 318 317 316 315 314 314 314 314 313 314 314 314 314 314 314 315 315 315
324 324 325 325 325 326 325 322 323 325 324 326 325 326 325 326 325 324 323 323 322 321 320 319 319 317 316 315 314 313 313 312 313 312 312 312 313 313 313 314 313 313 312 313
325 327 328 328 325 324 325 325 325 325 325 324 323 324 324 323 323 322 322 322 321 320 319 318 316 315 315 314 313 312 312 312 311 311 312 312 312 312 313 313 312 311 311 311
327 328 329 327 323 323 328 323 322 324 324 322 322 321 323 322 322 322 322 321 320 320 318 317 315 314 313 313 312 312 311 311 310 311 311 311 311 311 311 311 310 310 310 310
325 326 325 326 325 327 322 320 320 321 320 320 320 320 321 321 321 320 321 320 319 318 316 315 313 313 312 311 311 310 310 310 309 309 309 309 308 308 308 307 308 309 309 309
323 324 324 327 323 319 319 319 318 316 317 318 319 319 318 320 320 319 318 318 317 315 313 312 311 311 311 311 309 308 308 308 308 308 307 306 305 304 304 303 304 307 308 308
322 323 321 319 322 319 321 320 320 320 325 320 320 320 320 321 322 320 316 315 314 313 311 310 310 310 310 308 306 306 306 305 305 304 303 302 301 300 303 305 304 304 306 307
320 319 320 319 321 320 321 319 318 322 324 320 320 320 319 321 318 316 314 312 311 310 309 309 308 308 306 305 303 303 303 302 300 301 301 300 300 302 305 305 303 304 305 307
319 320 321 320 321 327 318 319 322 323 320 319 318 318 316 315 314 313 311 310 309 308 307 307 306 305 304 301 300 299 299 299 302 302 301 300 302 301 304 301 302 304 306 307
321 319 321 320 322 320 320 321 319 319 318 318 317 316 315 314 313 311 309 308 307 305 304 305 305 304 302 300 300 298 298 299 300 299 298 301 301 300 302 301 302 304 306 305
319 318 322 321 319 320 319 319 318 317 316 316 316 315 314 312 310 308 306 305 304 304 304 304 304 304 302 300 300 298 299 298 298 298 299 300 300 301 303 301 302 304 305 305
319 318 319 320 319 319 318 317 317 316 316 314 312 311 310 307 305 304 303 303 303 302 303 302 302 302 301 299 300 299 298 298 297 298 297 297 299 300 300 302 304 305 307 305
317 318 320 321 319 319 318 316 316 315 313 311 309 307 305 303 302 302 302 302 301 301 301 300 300 299 298 298 298 300 298 298 297 297 296 297 296 298 300 302 305 307 306 306
Wind_Speed
25 18 21 25 23 22 20 19 19 15 12 7 12 14 16 15 15 14 17 24 26 32 34 28 25 16 13 12 9 6 4 7 8 10 12 10 8 8 8 10 13 15 11 8
16 23 24 23 23 21 20 13 10 8 10 8 12 14 14 12 9 13 17 18 25 30 32 27 25 20 24 13 17 7 6 5 9 7 11 13 8 6 10 12 10 11 12 11
21 19 26 23 19 19 18 17 16 14 15 13 13 17 18 15 10 11 11 17 20 25 30 32 28 30 19 13 13 9 6 8 19 13 13 14 18 22 19 15 12 9 11 12
24 24 25 19 21 18 18 18 15 12 11 12 11 13 10 12 11 11 15 16 19 21 21 21 23 27 24 34 33 20 18 21 20 16 16 18 13 11 12 11 9 8 11 10
25 24 16 23 20 19 16 12 15 16 15 15 17 9 10 10 11 13 15 19 17 17 18 19 21 22 20 19 19 32 35 27 21 21 19 14 11 12 9 8 12 11 9 9
25 25 19 16 19 18 14 13 11 12 13 15 19 15 12 6 8 10 15 19 18 11 14 23 17 15 16 14 17 21 26 31 26 25 21 18 19 14 9 10 5 5 6 8
23 26 20 17 20 18 15 11 10 12 13 14 18 16 5 12 4 4 4 15 12 8 8 14 14 15 15 19 18 20 23 24 24 23 22 20 21 19 15 12 5 11 11 9
20 23 24 16 21 22 23 18 12 17 14 15 19 10 3 14 9 7 8 7 11 14 16 17 19 20 20 19 16 17 18 17 19 19 17 15 13 5 11 9 14 13 13 16
19 24 26 22 19 20 19 20 18 19 13 9 8 9 13 13 10 10 12 12 13 14 16 19 19 19 19 19 16 15 14 13 11 11 10 9 10 12 12 16 20 21 22 25
23 17 21 24 21 22 21 19 17 12 13 15 12 13 11 19 16 12 12 11 13 17 19 19 19 18 16 15 14 13 11 9 7 5 5 6 11 14 17 21 24 26 28 31
23 12 17 15 19 23 18 16 14 13 13 10 10 8 13 9 6 12 12 15 16 18 17 17 17 16 15 13 10 9 6 4 2 2 6 10 14 17 20 23 24 26 28 30
20 12 9 24 20 23 21 20 18 10 11 10 11 2 10 7 7 11 15 20 15 18 18 18 16 14 12 10 7 4 2 0 3 5 8 11 14 17 19 21 23 25 26 27
24 11 12 2 10 11 16 16 19 11 4 10 6 4 11 10 4 7 12 21 20 16 16 15 13 11 8 5 2 1 2 4 7 8 11 13 16 19 21 24 24 25 24 23
24 17 17 12 6 16 19 19 24 11 2 10 10 15 10 13 11 4 5 13 14 12 13 12 12 10 6 2 1 3 5 7 9 11 12 14 16 18 20 21 21 21 22 23
15 20 15 6 10 4 8 18 7 15 8 9 8 17 14 20 15 10 10 12 15 14 12 10 9 5 4 1 5 7 7 9 11 13 15 16 18 20 20 21 22 23 22 22
3 12 11 14 14 7 5 9 9 11 13 13 12 5 13 12 6 8 13 16 15 13 10 7 4 3 3 4 6 10 11 12 14 16 17 18 20 20 21 22 23 22 21 20
8 8 12 9 9 6 10 15 15 13 14 9 11 9 8 6 8 11 14 9 8 8 5 2 2 4 4 8 10 12 13 14 16 17 18 19 20 20 21 21 21 21 20 21
8 9 7 6 12 10 8 4 2 11 10 10 9 10 7 2 10 6 6 11 11 5 2 2 3 5 7 9 10 13 14 15 17 18 18 18 18 20 20 21 21 20 20 22
7 5 1 6 11 9 7 4 5 7 8 1 6 5 7 12 20 16 12 13 9 3 1 3 5 7 8 10 12 14 15 16 17 17 18 18 19 21 21 21 20 19 21 23
19 11 4 2 8 5 11 8 1 1 7 4 4 2 10 17 8 10 10 8 5 3 3 5 7 8 10 12 14 15 16 17 17 17 19 20 21 21 22 23 20 20 21 24
9 6 7 6 4 7 12 6 7 11 5 7 15 16 23 13 13 12 9 7 6 5 6 7 8 10 12 14 15 16 16 16 17 21 22 22 22 22 23 22 19 20 23 24
11 6 7 8 4 4 8 6 2 9 15 18 17 15 18 20 15 12 8 6 6 6 7 9 11 14 14 16 18 18 18 20 23 23 23 23 23 22 19 19 21 22 23 25
7 6 4 3 4 8 9 12 15 15 20 16 16 15 14 14 11 9 7 6 6 7 7 9 12 15 15 23 22 20 20 22 22 23 23 23 21 18 15 17 19 20 20 24
5 5 3 8 8 11 13 13 18 21 22 17 14 12 12 12 10 9 7 7 6 7 8 10 11 15 15 25 24 21 19 19 21 22 21 19 18 17 14 14 17 19 21 21
2 6 6 8 13 15 11 23 24 21 18 16 15 13 13 12 10 9 8 8 7 7 8 10 10 13 14 22 25 24 20 20 21 22 19 18 18 17 18 16 17 17 15 18
5 4 4 4 12 9 16 19 20 19 18 17 16 15 14 12 11 10 9 8 8 8 9 10 11 13 14 17 23 28 28 23 21 21 21 18 18 19 18 18 18 13 14 16
Wind_Direction
197 202 209 207 215 230 239 228 223 205 223 208 247 260 258 258 252 239 234 231 234 227 215 207 211 176 174 172 139 84 70 185 189 212 203 200 202 246 225 224 223 225 246 288
182 213 213 224 215 228 248 245 227 241 236 233 270 260 260 256 250 246 246 233 232 219 212 206 209 211 226 202 213 193 216 283 244 246 246 219 244 208 252 231 234 231 237 224
207 213 221 212 218 215 228 226 226 240 211 213 267 260 247 239 227 219 245 227 216 203 210 220 206 206 178 174 169 169 208 251 255 244 227 225 221 239 228 218 216 190 183 195
221 231 196 209 218 208 217 219 246 248 253 251 275 253 194 211 188 209 212 220 222 194 211 212 206 200 218 224 235 254 259 255 239 251 233 225 223 220 222 217 202 199 221 234
212 233 201 207 210 208 229 212 222 224 231 256 255 235 287 166 199 198 212 213 220 221 217 199 185 186 185 186 204 214 219 214 227 235 214 215 187 194 185 183 210 223 244 251
226 210 213 207 210 212 218 230 238 244 242 237 243 252 235 174 230 192 191 207 212 209 207 194 185 180 172 165 172 172 182 200 207 211 174 178 189 172 186 193 207 233 253 287
213 235 204 219 213 195 205 214 213 212 219 235 232 226 226 155 235 110 235 181 185 190 175 136 156 178 177 162 164 166 182 180 181 185 189 188 193 201 201 215 249 242 248 268
217 214 206 204 220 209 211 209 230 209 210 225 224 227 247 141 109 105 115 157 164 176 160 154 150 150 153 158 159 156 151 146 160 174 187 199 203 219 233 251 245 266 277 279
206 225 199 202 217 227 192 214 231 264 294 266 328 228 126 157 176 155 142 153 161 151 151 144 144 144 149 151 155 154 148 142 147 175 195 222 237 245 256 272 282 288 286 286
234 220 215 194 209 215 240 204 208 234 238 253 178 223 273 170 170 173 156 165 148 143 140 143 143 144 146 148 149 147 142 134 155 179 221 246 270 284 284 289 290 290 287 287
226 263 208 194 200 206 202 220 233 229 232 234 261 213 94 9 178 159 165 153 157 145 146 153 153 153 153 152 147 130 125 130 158 228 266 280 284 288 290 289 288 289 288 287
220 234 215 205 189 219 200 208 223 200 218 276 267 139 297 150 289 172 154 144 158 162 154 152 152 154 154 149 144 137 132 248 295 296 293 293 291 294 293 290 290 290 289 288
207 212 187 62 283 212 194 222 224 225 16 204 235 148 354 0 319 169 153 151 158 154 150 151 152 147 139 132 113 350 330 311 305 304 306 306 301 296 295 293 292 290 289 287
202 210 218 205 168 191 207 187 199 169 116 229 223 249 235 272 263 276 207 148 134 159 152 156 146 135 129 111 331 308 314 312 306 304 300 295 292 291 291 289 289 287 285 283
207 209 225 93 160 119 232 224 216 248 222 255 239 192 223 245 189 166 135 153 145 148 161 150 133 122 102 357 327 317 313 310 306 302 300 298 296 292 291 290 289 288 288 287
124 197 253 138 176 174 236 225 244 232 251 256 258 188 280 155 113 108 155 170 168 166 149 129 107 87 358 313 327 314 317 308 305 301 302 300 298 295 292 289 290 291 290 285
175 163 196 198 170 168 220 220 223 236 216 237 250 249 209 197 163 149 176 173 175 159 136 111 30 5 334 328 334 314 309 312 309 309 307 303 299 295 291 288 287 286 281 280
163 172 179 164 164 192 109 67 266 246 227 238 239 276 288 244 178 128 146 144 108 115 107 20 347 331 325 324 317 311 316 315 310 309 306 302 296 291 289 287 287 287 283 280
219 110 269 174 181 103 137 159 186 209 209 239 277 241 219 104 99 80 78 86 97 109 10 4 346 338 330 327 320 320 317 312 308 306 302 300 297 293 290 289 285 283 281 284
173 214 170 201 186 209 103 113 111 231 141 124 234 109 132 145 175 110 107 106 116 92 42 11 358 348 338 330 325 322 317 315 310 307 305 302 298 294 292 297 288 282 280 284
166 177 170 156 184 98 111 120 192 214 118 120 87 71 68 89 107 115 122 110 94 71 38 29 12 359 346 338 333 324 317 315 313 309 308 308 302 296 295 301 296 290 287 283
152 148 196 161 170 159 118 167 273 131 118 100 99 103 108 116 125 125 119 94 69 51 34 18 10 0 357 346 338 328 322 316 316 316 314 312 310 302 297 295 292 288 288 289
159 163 181 135 105 109 84 104 108 113 105 109 113 112 115 114 112 110 97 77 59 36 22 9 0 355 354 349 344 332 323 323 324 325 321 315 313 307 297 295 296 294 292 292
98 114 109 141 146 122 125 125 107 104 98 101 108 113 110 109 107 97 83 68 55 35 24 9 358 355 350 353 354 345 333 330 335 331 325 326 326 319 313 304 295 298 302 310
45 160 161 123 120 118 121 116 116 112 114 115 109 105 105 103 94 92 83 71 55 41 25 10 3 359 351 354 1 359 354 349 342 338 335 331 330 329 321 316 317 319 323 315
176 124 150 168 156 123 136 126 125 127 121 118 112 105 99 98 93 91 83 70 55 39 22 13 7 359 356 351 358 4 5 357 350 345 342 340 336 333 339 341 339 342 330 320